Regional Weather Roundup
Issued by NWS

Home | Current Version | Previous Version | Graphics & Text | Print | Product List | Glossary On
Versions: 1 2 3 4 5 6 7 8 9 10 11 12 13 14 15 16 17 18 19 20 21 22 23 24 25 26 27 28 29 30 31 32 33 34 35 36 37 38 39 40 41 42 43 44 45 46 47 48 49 50
598
ASUS45 KTFX 251810
RWRMT
MONTANA REGIONAL WEATHER ROUNDUP
NATIONAL WEATHER SERVICE GREAT FALLS MT
1100 AM MST SAT FEB 25 2017

NOTE: "FAIR" INDICATES FEW OR NO CLOUDS BELOW 12000 FEET WITH NO
SIGNIFICANT WEATHER AND/OR OBSTRUCTIONS TO VISIBILITY.

MTZ001>007-043-251900-
WEST OF THE DIVIDE

CITY           SKY/WX    TMP DP  RH WIND       PRES   REMARKS
KALISPELL      CLOUDY    24  16  71 S8        29.92F WCI  15
MISSOULA       PTSUNNY   24  17  74 S6        29.98F WCI  17
BUTTE          MOSUNNY   20   2  45 W16G23    29.84F WCI   6
MULLAN PASS    LGT SNOW  14  13  95 VRB6      29.83F VSB 3/4 WCI   5
ANACONDA         N/A     23   3  42 W10G16    29.87F WCI  12
DEER LODGE       N/A     25   1  36 W10G16    29.89F WCI  15
EUREKA           N/A     27  16  63 E5        29.93F
HAMILTON         N/A     28   7  40 W8G16     29.97F WCI  20
LIBBY            N/A     27  16  63 SE6       29.95F WCI  20
PLAINS           N/A     23  15  71 CALM      30.00
RONAN            N/A     27  16  63 S8        30.00S WCI  19
$$

MTZ008-052>055-251900-
SOUTHWEST MONTANA

CITY           SKY/WX    TMP DP  RH WIND       PRES   REMARKS
BOZEMAN        CLOUDY    23  12  62 N6        29.88F WCI  16
DILLON         MOSUNNY   23   7  50 SW22      29.89S WCI   8
W YELLOWSTONE  HAZE      10   5  79 SW18      29.85F VSB 1   WCI  -8
ENNIS          CLOUDY    23   3  42 W14G22    29.92F WCI  11
THREE FORKS      N/A     25  -8  23 CALM      29.89F
TWIN BRIDGES     N/A     24   2  38 S13       29.89F WCI  12
$$

MTZ009-010-012-014-046-048-049-054-251900-
EAST SLOPES AND CENTRAL MONTANA

CITY           SKY/WX    TMP DP  RH WIND       PRES   REMARKS
CUT BANK       SUNNY     28  12  51 W18       29.73F WCI  15
GREAT FALLS    SUNNY     30   7  37 W22G32    29.77F WCI  17
MALMSTROM AFB  SUNNY     29   6  37 W21G29    29.79F WCI  16
HELENA         PTSUNNY   31   8  38 W21G28    29.85F WCI  18
AUGUSTA          N/A     27   5  38 W24G35    29.74F WCI  12
BOWMANS CRNR     N/A     26   4  39 W25G32    29.75F WCI  11
CHOTEAU          N/A     30   7  37 W18       29.77F WCI  18
CONRAD           N/A     29  12  49 W12       29.80F WCI  19
POWER            N/A     28   6  39 W16G23    29.75F WCI  16
RAYNESFORD       N/A     25   8  48 W25G33    29.76F WCI   9
ULM              N/A     30   8  40 MISG      29.79F
$$

MTZ011-013-016-021-045-047-050-051-251900-
NORTH CENTRAL MONTANA

CITY           SKY/WX    TMP DP  RH WIND       PRES   REMARKS
HAVRE          MOSUNNY   26  19  74 W10       29.79F WCI  16
LEWISTOWN      SUNNY     25   9  50 W22       29.76F WCI  10
N BAR RANCH      N/A     23   7  50 W18G25    29.77F WCI   9
CHINOOK          N/A     27  19  74 W9        29.80F WCI  17
DENTON           N/A     28  10  47 W28G43    29.73F WCI  12
FORT BENTON      N/A     34   7  32 MISG      29.81F
GEYSER           N/A     27   7  42 W24G35    29.75F WCI  12
GRASS RANGE      N/A     25  14  63 W16       29.74F WCI  12
JUDITH GAP     FLURRIES  21   7  56 W18G30    29.75F WCI   6
ROY              N/A     26  16  64 MISG      29.75F
STANFORD         N/A     25   9  49 W24       29.74F WCI  10
WINIFRED       PTSUNNY   27  12  54 W21G28    29.75F WCI  13
$$

MTZ017>020-022>027-061-062-251900-
NORTHEAST MONTANA

CITY           SKY/WX    TMP DP  RH WIND       PRES   REMARKS
GLASGOW        LGT SNOW  26  22  84 W12       29.78F FOG     WCI  16
JORDAN           N/A     28  20  71 W12       29.80F WCI  18
WOLF POINT     PTSUNNY   25  19  78 N3        29.81F
PLENTYWOOD       N/A     19  16  86 N3        29.80F VSB 3/4
POPLAR           N/A     25  18  74 CALM      29.82F
SCOBEY           N/A     19  11  71 SW3       29.78F VSB 0
$$

MTZ028>42-056>058-251900-
SOUTHCENTRAL AND SOUTHEAST MONTANA

CITY           SKY/WX    TMP DP  RH WIND       PRES   REMARKS
BAKER          PTSUNNY   30  18  60 W16       29.82F WCI  19
BILLINGS       PTSUNNY   26  19  74 SW15      29.84F WCI  14
LIVINGSTON     CLOUDY    25  11  55 W24G35    29.82F WCI   9
MILES CITY     PTSUNNY   30  21  69 SW10      29.83F WCI  21
BIG TIMBER     MOSUNNY   23  14  68 W22G30    29.84F HAZE    WCI   8
EKALAKA          N/A     28  16  61 W10       29.80  WCI  19
FORSYTH          N/A     30  25  80 W12       29.83F WCI  21
HARLOWTON      FLURRIES  22  17  82 W28G37    29.78F WCI   4
LAUREL           N/A     27  14  57 S14       29.83F WCI  16
ROUNDUP          N/A     28   9  45 W21       29.74F WCI  15
$$

REGIONAL REPORTS...DAKOTAS

CITY           SKY/WX    TMP DP  RH WIND       PRES   REMARKS
WILLISTON      CLOUDY    22  17  81 SW6       29.83F WCI  14
MINOT          PTSUNNY   23  15  71 W13       29.83F WCI  11
DICKINSON      CLOUDY    24  18  77 CALM      29.79F
BEACH            N/A    N/A N/A N/A MISG        N/A
CROSBY         LGT SNOW  16  14  93 N8        29.86F WCI   5
TIOGA          MIX PCPN  19  18  93 W5        29.82F
WATFORD CITY   CLOUDY    19  19 100 SW9       29.83F WCI   9
BISMARCK       CLOUDY    27  22  81 N9        29.86F WCI  18
GRAND FORKS    PTSUNNY   31  19  61 W12       29.81F WCI  22
FARGO          CLOUDY    30  21  69 SW14      29.85F WCI  19
BUFFALO SD       N/A     31  16  54 W18       29.75F WCI  19
RAPID CITY     SUNNY     32  21  64 N7        29.85F WCI  26
$$

REGIONAL REPORTS...WYOMING/IDAHO/WASHINGTON

CITY           SKY/WX    TMP DP  RH WIND       PRES   REMARKS
GILLETTE       CLOUDY    24  18  77 SW10      29.82F WCI  14
SHERIDAN       CLOUDY    25  16  68 MISG      29.82F
BUFFALO WY     CLOUDY    23  16  74 S10       29.79F WCI  12
CODY           SUNNY     26   3  37 SW18G28   29.82F WCI  13
YELLOWSTONE LA   N/A     11   3  70 VRB7      29.78F WCI   0
IDAHO FALLS    MOSUNNY   15  10  80 SW18      30.02F WCI  -2
SALMON         PTSUNNY   27   9  46 SW18G24   29.98F WCI  13
BOISE          SUNNY     32  16  51 CALM      30.15S
SPOKANE        MOSUNNY   26  24  92 SW6       30.08S WCI  19
$$

REGIONAL REPORTS...ALBERTA

CITY           SKY/WX    TMP DP  RH WIND       PRES   REMARKS
EDMONTON       CLOUDY    19   9  63 W14       29.68F WCI   6
CALGARY        MOSUNNY   18   9  68 SW7       29.66F WCI   8
LETHBRIDGE     MOSUNNY   25  18  74 W10       29.74F WCI  15
MEDICINE HAT   PTSUNNY   18  14  86 SW9       29.79F WCI   6
WATERTON GATE    N/A     25   9  50 SW22G32     N/A  WCI  10
CARDSTON         N/A     27   7  43 W15G24      N/A  WCI  15
MILK RIVER       N/A     28  14  54 W22G28      N/A  WCI  15
$$

REGIONAL REPORTS...SASKATCHEWAN

CITY           SKY/WX    TMP DP  RH WIND       PRES   REMARKS
SWIFT CURRENT  CLOUDY    12   9  85 W5        29.76F
REGINA         PTSUNNY   12   5  73 NW10      29.83F WCI  -1
SASKATOON      PTSUNNY   10   1  67 W7        29.85F WCI   0
CYPRESS HILLS    N/A     18  10  73 W5          N/A
VAL MARIE        N/A     19  16  86 NE8         N/A  WCI   9
ROCKGLEN         N/A     14  12  92 NE3         N/A
ASSINIBOIA       N/A     18  10  73 SW10        N/A  WCI   6
$$




USA.gov is the U.S. government's official web portal to all federal, state and local government web resources and services.